Weather History for KHEF - November, 2011

Change the Weather History Date:

Friday, November 11, 2011

  Actual Average Record
Temperature  
Mean Temperature 39 °F -  
Max Temperature 48 °F 55 °F 77 °F (2006)
Min Temperature 30 °F 32 °F 24 °F (1996)
Degree Days  
Heating Degree Days 26    
Moisture  
Dew Point 23 °F    
Average Humidity 49    
Maximum Humidity 81    
Minimum Humidity 32    
Precipitation  
Precipitation 0.00 in - - ()
Sea Level Pressure  
Sea Level Pressure 29.97 in    
Wind  
Wind Speed 11 mph (WNW)    
Max Wind Speed 23 mph    
Max Gust Speed 32 mph    
Visibility 10 miles    
Events      
Averages and records for this station are not official NWS values.
T = Trace of Precipitation, MM = Missing Value Source: NWS Daily Summary

Daily Weather History Graph

Daily Weather History Graph

Search for Another Location

Airport or City:

Trip Planner

Search our weather history database for the weather conditions in past years. The results will help you decide how hot, cold, wet, or windy it might be!

Date:

Astronomy

Nov. 11, 2011 Rise Set
Actual Time 6:47 AM EST 5:00 PM EST
Civil Twilight 6:19 AM EST 5:28 PM EST
Nautical Twilight 5:47 AM EST 6:00 PM EST
Astronomical Twilight 5:16 AM EST 6:31 PM EST
Moon 5:28 PM EST (11/11) 7:33 AM EST (11/11)
Length of Visible Light 11h 08m
Length of Day
10h 12m
Full, 99% of the Moon is Illuminated
Nov 11
Full
Nov 18
Last Quarter
Nov 25
New
Dec 2
First Quarter
Dec 10
Full

Hourly Weather History & Observations

Time (EST) Temp. Windchill Dew Point Humidity Pressure Visibility Wind Dir Wind Speed Gust Speed Precip Events Conditions
12:15 AM 33.8 °F 27.7 °F 28.4 °F 81% 29.86 in 10.0 mi WNW 6.9 mph - N/A   Partly Cloudy
12:35 AM 39.2 °F 34.2 °F 28.4 °F 65% 29.86 in 10.0 mi NW 6.9 mph - N/A   Partly Cloudy
12:55 AM 39.2 °F 33.0 °F 28.4 °F 65% 29.86 in 10.0 mi WNW 9.2 mph - N/A   Partly Cloudy
1:15 AM 41.0 °F 34.3 °F 28.4 °F 61% 29.86 in 10.0 mi WNW 11.5 mph - N/A   Partly Cloudy
1:35 AM 41.0 °F 35.2 °F 28.4 °F 61% 29.86 in 10.0 mi WNW 9.2 mph - N/A   Clear
1:55 AM 41.0 °F 33.9 °F 28.4 °F 61% 29.87 in 10.0 mi WNW 12.7 mph - N/A   Clear
2:15 AM 41.0 °F 34.7 °F 26.6 °F 57% 29.87 in 10.0 mi WNW 10.4 mph - N/A   Clear
2:35 AM 39.2 °F 32.5 °F 26.6 °F 61% 29.87 in 10.0 mi NW 10.4 mph - N/A   Clear
3:15 AM 39.2 °F 35.0 °F 24.8 °F 56% 29.87 in 10.0 mi WNW 5.8 mph - N/A   Clear
3:35 AM 37.4 °F 32.1 °F 26.6 °F 65% 29.87 in 10.0 mi West 6.9 mph - N/A   Clear
3:55 AM 39.2 °F 33.0 °F 24.8 °F 56% 29.87 in 10.0 mi West 9.2 mph - N/A   Clear
4:15 AM 39.2 °F 31.2 °F 21.2 °F 49% 29.88 in 10.0 mi WNW 13.8 mph 23.0 mph N/A   Clear
4:35 AM 39.2 °F 31.2 °F 19.4 °F 45% 29.88 in 10.0 mi WNW 13.8 mph 24.2 mph N/A   Clear
4:55 AM 39.2 °F 32.0 °F 19.4 °F 45% 29.88 in 10.0 mi WNW 11.5 mph 21.9 mph N/A   Clear
5:15 AM 39.2 °F 32.0 °F 19.4 °F 45% 29.88 in 10.0 mi West 11.5 mph 16.1 mph N/A   Partly Cloudy
5:35 AM 39.2 °F 31.2 °F 19.4 °F 45% 29.89 in 10.0 mi West 13.8 mph 19.6 mph N/A   Mostly Cloudy
5:55 AM 39.2 °F 31.6 °F 19.4 °F 45% 29.89 in 10.0 mi WNW 12.7 mph - N/A   Mostly Cloudy
6:15 AM 39.2 °F 32.0 °F 19.4 °F 45% 29.90 in 10.0 mi WNW 11.5 mph 17.3 mph N/A   Partly Cloudy
6:35 AM 37.4 °F 31.4 °F 19.4 °F 48% 29.90 in 10.0 mi WNW 8.1 mph - N/A   Clear
6:55 AM 37.4 °F 31.4 °F 19.4 °F 48% 29.90 in 10.0 mi WNW 8.1 mph - N/A   Clear
7:15 AM 37.4 °F 31.4 °F 19.4 °F 48% 29.91 in 10.0 mi WNW 8.1 mph - N/A   Clear
7:35 AM 37.4 °F 33.8 °F 19.4 °F 48% 29.92 in 10.0 mi West 4.6 mph - N/A   Clear
7:55 AM 39.2 °F 32.0 °F 21.2 °F 49% 29.93 in 10.0 mi West 11.5 mph - N/A   Clear
8:15 AM 41.0 °F 33.1 °F 21.2 °F 45% 29.94 in 10.0 mi West 15.0 mph - N/A   Clear
8:35 AM 42.8 °F 35.8 °F 21.2 °F 42% 29.95 in 10.0 mi WNW 13.8 mph 19.6 mph N/A   Clear
8:55 AM 42.8 °F 35.8 °F 23.0 °F 46% 29.96 in 10.0 mi WNW 13.8 mph - N/A   Partly Cloudy
9:15 AM 44.6 °F 35.9 °F 23.0 °F 43% 29.97 in 10.0 mi NW 23.0 mph 27.6 mph N/A   Mostly Cloudy
9:35 AM 44.6 °F 37.8 °F 23.0 °F 43% 29.96 in 10.0 mi WNW 15.0 mph 26.5 mph N/A   Scattered Clouds
9:55 AM 44.6 °F 36.6 °F 23.0 °F 43% 29.97 in 10.0 mi West 19.6 mph 26.5 mph N/A   Partly Cloudy
10:15 AM 46.4 °F 39.2 °F 23.0 °F 40% 29.97 in 10.0 mi WNW 18.4 mph 25.3 mph N/A   Partly Cloudy
10:35 AM 46.4 °F 38.3 °F 24.8 °F 43% 29.97 in 10.0 mi WNW 23.0 mph 29.9 mph N/A   Clear
10:55 AM 46.4 °F 38.7 °F 24.8 °F 43% 29.97 in 10.0 mi WNW 20.7 mph 32.2 mph N/A   Clear
11:15 AM 48.2 °F - 24.8 °F 40% 29.97 in 10.0 mi WNW 16.1 mph 25.3 mph N/A   Scattered Clouds
11:35 AM 46.4 °F 39.0 °F 21.2 °F 37% 29.97 in 10.0 mi West 19.6 mph 32.2 mph N/A   Mostly Cloudy
11:55 AM 46.4 °F 39.5 °F 23.0 °F 40% 29.97 in 10.0 mi WNW 17.3 mph 28.8 mph N/A   Mostly Cloudy
12:15 PM 46.4 °F 39.5 °F 23.0 °F 40% 29.97 in 10.0 mi WNW 17.3 mph 25.3 mph N/A   Overcast
12:35 PM 48.2 °F - 24.8 °F 40% 29.96 in 10.0 mi WNW 20.7 mph 29.9 mph N/A   Scattered Clouds
12:55 PM 48.2 °F - 24.8 °F 40% 29.96 in 10.0 mi West 16.1 mph 25.3 mph N/A   Scattered Clouds
1:15 PM 48.2 °F - 24.8 °F 40% 29.97 in 10.0 mi West 18.4 mph 31.1 mph N/A   Partly Cloudy
1:35 PM 48.2 °F - 23.0 °F 37% 29.97 in 10.0 mi WNW 20.7 mph 27.6 mph N/A   Partly Cloudy
1:55 PM 48.2 °F - 23.0 °F 37% 29.98 in 10.0 mi WNW 19.6 mph 23.0 mph N/A   Partly Cloudy
2:15 PM 48.2 °F - 24.8 °F 40% 29.98 in 10.0 mi WNW 21.9 mph 28.8 mph N/A   Scattered Clouds
2:35 PM 48.2 °F - 23.0 °F 37% 29.99 in 10.0 mi NW 16.1 mph 24.2 mph N/A   Mostly Cloudy
2:55 PM 48.2 °F - 21.2 °F 34% 29.99 in 10.0 mi WNW 20.7 mph 27.6 mph N/A   Scattered Clouds
3:15 PM 48.2 °F - 19.4 °F 32% 30.00 in 10.0 mi West 20.7 mph 29.9 mph N/A   Partly Cloudy
3:35 PM 46.4 °F 38.7 °F 19.4 °F 34% 30.01 in 10.0 mi WNW 20.7 mph 24.2 mph N/A   Clear
4:15 PM 46.4 °F 41.5 °F 19.4 °F 34% 30.03 in 10.0 mi West 10.4 mph 21.9 mph N/A   Clear
4:35 PM 46.4 °F 41.1 °F 21.2 °F 37% 30.04 in 10.0 mi West 11.5 mph - N/A   Mostly Cloudy
4:55 PM 44.6 °F 37.4 °F 19.4 °F 37% 30.04 in 10.0 mi West 16.1 mph 20.7 mph N/A   Mostly Cloudy
5:35 PM 44.6 °F 40.2 °F 19.4 °F 37% 30.05 in 10.0 mi West 8.1 mph - N/A   Clear
5:55 PM 42.8 °F 38.0 °F 19.4 °F 39% 30.06 in 10.0 mi West 8.1 mph - N/A   Clear
6:15 PM 42.8 °F 39.3 °F 19.4 °F 39% 30.07 in 10.0 mi West 5.8 mph - N/A   Clear
6:35 PM 41.0 °F 38.0 °F 19.4 °F 42% 30.08 in 10.0 mi West 4.6 mph - N/A   Clear
6:55 PM 37.4 °F - 19.4 °F 48% 30.08 in 10.0 mi Calm Calm - N/A   Clear
7:15 PM 35.6 °F - 23.0 °F 60% 30.09 in 10.0 mi Calm Calm - N/A   Clear
7:35 PM 30.2 °F 26.7 °F 21.2 °F 69% 30.09 in 10.0 mi South 3.5 mph - N/A   Clear
7:55 PM 32.0 °F - 24.8 °F 75% 30.09 in 10.0 mi Calm Calm - N/A   Clear
8:15 PM 32.0 °F - 24.8 °F 75% 30.10 in 10.0 mi Calm Calm - N/A   Clear
8:35 PM 32.0 °F - 24.8 °F 75% 30.11 in 10.0 mi Calm Calm - N/A   Clear
8:55 PM 32.0 °F - 24.8 °F 75% 30.12 in 10.0 mi Calm Calm - N/A   Clear
9:15 PM 30.2 °F - 23.0 °F 75% 30.12 in 10.0 mi Calm Calm - N/A   Clear
9:35 PM 30.2 °F 26.7 °F 23.0 °F 75% 30.13 in 10.0 mi South 3.5 mph - N/A   Clear
9:55 PM 30.2 °F 25.4 °F 23.0 °F 75% 30.13 in 10.0 mi SE 4.6 mph - N/A   Clear
10:15 PM 28.4 °F - 23.0 °F 80% 30.13 in 10.0 mi Calm Calm - N/A   Clear
10:35 PM 28.4 °F - 23.0 °F 80% 30.13 in 10.0 mi Calm Calm - N/A   Clear
10:55 PM 28.4 °F - 21.2 °F 74% 30.14 in 10.0 mi Calm Calm - N/A   Clear
11:15 PM 28.4 °F - 24.8 °F 86% 30.13 in 10.0 mi Calm Calm - N/A   Clear
11:35 PM 28.4 °F - 23.0 °F 80% 30.13 in 10.0 mi Calm Calm - N/A   Clear
11:55 PM 28.4 °F - 24.8 °F 86% 30.13 in 10.0 mi Calm Calm - N/A   Clear